Location: ?ejeti?ky
(50.4060°N, 14.9016°E)
Time: 22:30:25
(UTC+00:00)

STARLINK-1364 - Pass Details

Date: 08 October 2020
Orbit: 548 x 551 km, 53.0° (Epoch: 23 October)

Event Time Altitude Azimuth Distance (km) Brightness Sun altitude
Exits shadow 04:25:37 11° 277° (W) 1,796 5.6 -8.2°
Maximum altitude 04:29:01 26° 220° (SW) 1,091 4.8 -7.7°
Drops below altitude 10° 04:32:30 10° 163° (SSE) 1,820 6.5 -7.1°
Sets 04:34:58 0° 151° (SSE) 2,711 7.6 -6.7°
